Regional Weather Roundup
Issued by NWS Nashville, TN

Home | Current Version | Previous Version | Text Only | Print | Product List | Glossary On
Versions: 1 2 3 4 5 6 7 8 9 10 11 12 13 14 15 16 17 18 19 20 21 22 23 24 25 26 27 28 29 30 31 32 33 34 35 36 37 38 39 40 41 42 43 44 45 46 47 48 49 50
000
ASUS44 KOHX 220215
RWROHX
MIDDLE TENNESSEE HOURLY WEATHER ROUNDUP
NATIONAL WEATHER SERVICE NASHVILLE TN
900 PM CDT SUN SEP 21 2014

NOTE: "FAIR" INDICATES FEW OR NO CLOUDS BELOW 12,000 FEET WITH
NO SIGNIFICANT WEATHER AND/OR OBSTRUCTIONS TO VISIBILITY.

* THESE REPORTS ARE NOT UNDER NWS QUALITY CONTROL AND MAY NOT
  REPORT WEATHER SUCH AS PRECIPITATION AND FOG.


TNZ005>011-023>034-057-059-062>066-078-080-220300
...NORTHERN MIDDLE TENNESSEE...

CITY           SKY/WX    TMP DP  RH WIND       PRES   REMARKS
CLARKSVILLE    CLEAR     65  50  58 N7        30.03R
CROSSVILLE     CLEAR     68  56  65 NW7       30.05R
GALLATIN         N/A     70  50  49 N5        30.04R
DICKSON        CLEAR     66  48  52 N6        30.04R
LEBANON        CLEAR     67  49  52 CALM      30.02R
LIVINGSTON     CLEAR     66  46  48 N9        30.04R
NASHVILLE      PTCLDY    71  49  45 N6        30.04R
WEST NASHVILLE   N/A     66  46  48 NW6       30.03R
PORTLAND       CLEAR     64  48  55 NW3       30.02R
SMYRNA         PTCLDY    69  50  50 N5        30.04R
SPARTA         CLEAR     68  55  64 N3        30.03R
$$
TNZ056-058-060-061-075>077-079-093>097-220300
...SOUTHERN MIDDLE TENNESSEE...

CITY           SKY/WX    TMP DP  RH WIND       PRES   REMARKS
COLUMBIA       CLEAR     73  55  53 N5        30.02R
FAYETTEVILLE   PTCLDY    73  66  78 N5        30.00R
LEWISBURG      MOCLDY    74  54  49 N10       30.02R
MCMINNVILLE    CLEAR     70  54  56 N8        30.03R
MURFREESBORO   CLEAR     72  50  45 N6        30.02R
SHELBYVILLE    CLOUDY    73  55  53 N6        30.03R
TULLAHOMA      MOCLDY    72  61  68 N13       30.03R
WINCHESTER     PTCLDY    70  68  94 CALM      30.00S
$$


...KEY TO REMARKS...
VSB - VISIBILITY IN MILES
WCI - WIND CHILL INDEX
HX  - HEAT INDEX




USA.gov is the U.S. government's official web portal to all federal, state and local government web resources and services.